This demonstration page uses our WeatherBlox Daily Observations layout. Learn more.

Left ArrowRight Arrow

41.86663, -103.66717

Hourly Observations for November 22, 2019

Temp ( °F °C ) Dew Point ( °F °C ) Humidity (%) Winds ( mph kmh ) Pressure ( in mb ) Visibility ( mi km ) Precip ( " mm )
12:53 am 00:53 Clear 19 -7.2 15 -9.4 84 84 ENE 7 11 30.26 1025 10 16 0.00 0.00
1:53 am 01:53 Mostly Cloudy 21 -6.1 18 -7.8 88 88 ENE 5 7 30.23 1024 10 16 0.00 0.00
2:53 am 02:53 Clear 19 -7.2 15 -9.4 84 84 ESE 8 13 30.23 1024 10 16 0.00 0.00
3:53 am 03:53 Clear 17 -8.3 14 -10 88 88 ESE 8 13 30.24 1024 10 16 0.00 0.00
4:53 am 04:53 Clear 18 -7.8 15 -9.4 88 88 ESE 9 15 30.22 1024 10 16 0.00 0.00
5:53 am 05:53 Clear 17 -8.3 14 -10 88 88 E 5 7 30.23 1024 10 16 0.00 0.00
6:53 am 06:53 Sunny 17 -8.3 14 -10 88 88 E 5 7 30.23 1024 10 16 0.00 0.00
7:53 am 07:53 Sunny 21 -6.1 17 -8.3 85 85 E 8 13 30.22 1024 10 16 0.00 0.00
8:53 am 08:53 Sunny 28 -2.2 23 -5 81 81 ESE 6 9 30.19 1022 10 16 0.00 0.00
9:53 am 09:53 Sunny 33 0.6 26 -3.3 75 75 SE 9 15 30.17 1022 10 16 0.00 0.00
10:53 am 10:53 Sunny 37 2.8 27 -2.8 67 67 SE 5 7 30.13 1020 10 16 0.00 0.00
11:53 am 11:53 Mostly Sunny 42 5.6 28 -2.2 58 58 WSW 6 9 30.09 1019 10 16 0.00 0.00
12:53 pm 12:53 Sunny 44 6.7 28 -2.2 53 53 NNW 5 7 30.04 1017 10 16 0.00 0.00
1:53 pm 13:53 Sunny 45 7.2 28 -2.2 52 52 VRB 3 6 30.01 1016 10 16 0.00 0.00
2:53 pm 14:53 Sunny 46 7.8 28 -2.2 50 50 NW 6 9 30.01 1016 10 16 0.00 0.00
3:53 pm 15:53 Sunny 43 6.1 27 -2.8 53 53 NNW 5 7 30.02 1017 10 16 0.00 0.00
4:53 pm 16:53 Clear 36 2.2 26 -3.3 67 67 Calm 30.04 1017 10 16 0.00 0.00
5:53 pm 17:53 Clear 30 -1.1 23 -5 75 75 N 3 6 30.08 1019 10 16 0.00 0.00
6:53 pm 18:53 Clear 24 -4.4 20 -6.7 84 84 NNW 6 9 30.11 1020 10 16 0.00 0.00
7:53 pm 19:53 Clear 25 -3.9 21 -6.1 85 85 WNW 7 11 30.08 1019 10 16 0.00 0.00
8:53 pm 20:53 Clear 26 -3.3 23 -5 88 88 NW 8 13 30.08 1019 10 16 0.00 0.00
9:53 pm 21:53 Clear 22 -5.6 20 -6.7 92 92 NNW 5 7 30.06 1018 10 16 0.00 0.00
10:53 pm 22:53 Clear 24 -4.4 21 -6.1 88 88 NW 8 13 30.05 1018 10 16 0.00 0.00
11:53 pm 23:53 Clear 29 -1.7 22 -5.6 75 75 WNW 10 17 30.04 1017 10 16 0.00 0.00

Powered by AerisWeather